Regional Weather Roundup
Issued by NWS Cleveland, OH

Home | Current Version | Previous Version | Graphics & Text | Print | Product List | Glossary On
Versions: 1 2 3 4 5 6 7 8 9 10 11 12 13 14 15 16 17 18 19 20 21 22 23 24 25 26 27 28 29 30 31 32 33 34 35 36 37 38 39 40 41 42 43 44 45 46 47 48 49 50
000
ASUS41 KCLE 290512
RWRCLE
OHIO REGIONAL WEATHER ROUNDUP
NATIONAL WEATHER SERVICE WILMINGTON, OH
100 AM EDT THU JUN 29 2017

NOTE: "FAIR" INDICATES FEW OR NO CLOUDS BELOW 12,000 FEET WITH NO
SIGNIFICANT WEATHER AND/OR OBSTRUCTIONS TO VISIBILITY.

OHZ001>008-015>018-024>027-034-035-043-044-290600-
   NORTHWEST OHIO

CITY           SKY/WX    TMP DP  RH WIND       PRES   REMARKS
DEFIANCE       FAIR      70  53  54 S15G23    29.93F
FINDLAY        FAIR      68  52  56 S14       29.97F
TOLEDO EXPRESS FAIR      70  55  59 S13G20    29.94F
TOLEDO EXEC    FAIR      71  54  54 S14       29.94F
LIMA           FAIR      68  54  60 S10       29.98F
$$

OHZ009>014-019>023-028>033-038-089-290600-
   NORTHEAST OHIO

CITY           SKY/WX    TMP DP  RH WIND       PRES   REMARKS
CLE-HOPKINS    CLOUDY    72  53  51 S13G23    30.03S
CLE-LAKEFRONT  FAIR      72  51  47 S14G23    30.00S
CUY CO. ARPT   NOT AVBL
LORAIN-ELYRIA  FAIR      68  50  52 S13       30.02R
ASHTABULA      MOCLDY    66  53  63 S6        30.05R
AKRON-CANTON   FAIR      65  52  62 S12       30.05F
WOOSTER        FAIR      62  53  72 S8        30.05F
MANSFIELD      FAIR      65  53  65 S10       30.03F
YOUNGSTOWN     CLOUDY    66  52  60 S6        30.06F
$$

OHZ042-051>053-060>062-070>072-077>081-290600-
  SOUTHWEST OHIO

CITY           SKY/WX    TMP DP  RH WIND       PRES   REMARKS
CINC-COVINGTON MOCLDY    66  58  75 S6        30.04S
CINC-LUNKEN    FAIR      61  59  93 NE3       30.05R
HAMILTON       FAIR      61  57  87 CALM      30.04S
DAYTON         FAIR      68  54  60 S10       30.03F
WRIGHT-PAT AFB FAIR      64  56  74 S6        30.03S
DAYTON GENERAL FAIR      64  55  72 S7        30.03F
WILMINGTON     FAIR      63  57  81 S5        30.06R
$$

OHZ036-037-039>041-045>050-054>059-063>069-073>076-082>088-290600-
  CENTRAL AND SOUTHEAST OHIO

CITY           SKY/WX    TMP DP  RH WIND       PRES   REMARKS
COLUMBUS       FAIR      67  55  65 SE5       30.04F
OSU AIRPORT    FAIR      66  56  70 S8        30.03F
BOLTON FIELD   FAIR      62  55  77 S7        30.05S
RICKENBACK AFB FAIR      62  54  75 SE5       30.04F
NEWARK         FAIR      57  54  89 CALM      30.06S
MARION         FAIR      64  54  69 S9        30.03S
LANCASTER      FAIR      58  54  86 CALM      30.07R
ZANESVILLE     FAIR      60  54  80 SE3       30.08R
NEW PHILLY     FAIR      62  55  77 CALM      30.08S
$$




USA.gov is the U.S. government's official web portal to all federal, state and local government web resources and services.